Wind_Speed
13 13 12 13 12 6 3 4 2 2 2 1 3 2 3 2 1 6 7 7 5 4 5 6 6 5 2 1 6 4 3 6 5 5 3 3 8 23 23 18 30 34 33 32 32 30 26 27 26 25 26 27 26 24 22 20 22 23 23 22 22 21 21 20 20 19 18 18 18 18 18 17 16 16 15 14 14 13 13 12 11 11 10 11 10 10 9 7 8 10 10 10 10 10 11 12 13
13 13 11 10 7 3 1 3 2 3 4 2 4 2 3 2 4 7 5 5 3 3 4 5 6 6 5 3 3 1 1 1 3 4 1 7 16 20 21 24 33 34 32 31 31 30 28 28 26 26 27 27 26 24 22 20 22 23 23 22 22 21 21 20 19 19 18 17 17 17 16 16 16 15 14 13 13 13 12 11 10 10 10 10 10 9 8 6 8 10 10 10 11 11 12 13 14
13 13 12 8 4 4 2 3 2 0 1 2 5 3 2 3 4 7 5 2 6 5 3 4 3 2 5 7 2 0 1 2 2 3 2 13 15 18 24 28 34 33 32 31 29 29 29 28 26 26 27 28 26 24 22 21 22 22 22 21 21 21 20 20 19 19 17 16 16 16 15 15 14 14 13 13 12 12 11 10 9 9 9 9 9 8 7 6 8 10 11 11 11 12 13 14 14
11 12 12 7 3 4 4 2 1 4 2 3 4 5 2 3 5 8 6 6 7 4 3 3 3 1 2 4 4 2 2 2 2 2 2 11 13 23 31 31 35 33 32 30 28 28 28 27 27 26 26 27 26 24 22 21 22 21 22 21 20 20 19 19 18 18 16 15 15 15 14 14 13 13 13 13 12 11 10 10 9 8 9 8 8 8 6 7 9 10 12 13 13 13 14 14 13
9 8 7 4 2 1 3 2 1 4 4 4 2 6 4 5 5 10 9 6 6 4 4 2 2 2 3 3 1 1 3 1 2 3 3 9 16 29 33 33 35 32 32 29 27 27 26 26 26 25 25 26 25 23 21 20 21 21 21 20 20 19 19 18 18 17 16 15 14 14 14 13 12 12 12 11 11 10 9 9 8 7 7 7 6 6 6 8 9 10 12 14 13 13 13 13 12
7 4 4 4 2 1 2 1 2 3 5 5 3 7 6 5 6 10 11 10 5 8 8 5 2 0 1 2 2 2 2 2 3 4 7 12 22 30 32 34 34 32 30 28 27 26 25 24 24 25 24 24 23 22 21 19 19 20 20 19 19 19 18 17 17 16 15 14 14 13 13 12 10 11 10 9 9 8 7 7 7 6 5 5 5 5 7 8 9 9 11 13 13 13 12 11 10
4 2 3 3 1 1 3 4 5 5 5 6 5 6 9 8 5 8 9 11 6 4 3 3 2 2 2 1 2 2 5 2 5 8 14 20 27 30 30 33 33 32 30 28 27 25 24 23 23 23 22 22 21 20 20 18 18 19 19 19 19 18 17 17 16 16 15 14 13 13 11 10 9 9 8 8 7 6 6 6 5 5 5 5 6 6 7 8 8 9 11 13 13 12 10 9 9
2 0 1 3 0 2 3 4 5 4 4 4 5 6 10 9 5 7 7 6 7 3 1 3 3 1 5 1 1 4 11 6 10 15 21 27 30 28 29 31 31 30 30 30 28 25 23 22 23 22 21 21 19 19 19 18 18 18 18 19 18 18 17 16 15 15 14 13 12 11 9 8 8 8 7 7 6 5 5 5 5 5 5 6 7 7 7 8 8 9 10 13 12 11 10 9 8
1 1 0 2 2 1 1 3 3 4 4 5 6 6 9 9 6 6 8 7 7 8 4 6 5 2 6 1 2 3 10 12 19 22 27 31 30 29 28 30 30 29 29 30 29 26 23 23 23 21 20 20 19 19 18 18 18 18 18 18 18 17 16 15 15 14 13 12 11 10 8 6 5 5 5 5 4 4 5 4 4 4 5 7 7 7 7 7 8 9 10 12 12 11 9 8 7
2 1 2 1 2 3 4 3 3 3 5 6 7 8 8 8 6 7 8 9 10 10 6 5 5 4 4 2 2 2 7 19 27 26 28 31 29 29 28 29 30 29 29 30 28 26 24 23 22 21 20 19 19 18 19 19 19 18 18 18 18 17 16 15 15 14 13 12 10 8 6 4 3 3 4 4 3 4 4 3 4 5 6 6 7 6 6 7 8 9 10 11 11 10 8 7 6
1 2 2 2 2 5 5 4 5 4 5 3 4 7 7 8 7 8 8 10 12 10 4 4 4 4 3 1 2 3 13 22 28 28 27 29 28 28 29 28 28 30 31 30 28 27 26 24 22 22 21 20 20 20 21 20 20 19 19 19 18 17 16 15 15 14 12 11 9 7 5 3 2 2 2 3 3 3 3 3 4 6 7 7 7 6 6 7 7 9 9 10 10 8 7 6 5
1 1 3 3 5 5 5 5 6 6 5 2 4 7 6 6 5 9 11 12 12 9 6 5 5 5 4 1 1 6 12 15 25 31 29 28 27 28 29 28 28 29 30 28 28 27 26 24 23 23 22 22 21 21 21 21 20 20 19 19 18 17 16 15 14 13 11 10 8 6 4 3 2 2 2 2 2 3 3 4 4 7 8 8 7 7 6 6 7 8 9 9 8 7 6 4 3
3 4 5 3 4 4 5 5 6 5 5 3 5 6 4 5 7 12 12 11 11 10 8 7 6 7 4 1 2 5 8 12 23 30 29 28 27 28 29 28 28 28 27 28 28 26 25 25 25 24 22 22 21 21 21 20 20 20 20 19 17 16 15 14 14 12 10 9 7 6 5 4 3 3 2 2 1 2 3 4 5 7 8 9 8 7 6 6 6 7 9 8 8 6 5 4 3
3 3 5 3 3 4 5 4 4 5 5 4 5 5 4 4 7 9 7 10 13 9 6 6 10 7 2 3 3 3 7 16 24 28 29 29 28 29 29 28 27 27 26 26 26 25 25 24 24 24 22 22 21 22 21 20 20 20 19 18 17 15 14 14 13 11 9 7 6 5 5 5 4 4 4 4 3 2 2 3 5 8 9 10 9 7 6 6 6 7 7 8 7 6 4 3 3
5 2 4 3 2 4 5 4 5 6 5 4 6 6 5 6 5 5 6 10 11 4 2 3 8 5 5 8 6 5 13 22 26 28 30 28 28 28 28 28 27 26 25 24 23 23 23 23 23 23 23 23 22 22 21 19 19 19 18 17 16 15 14 14 12 10 8 7 6 6 6 6 6 5 6 6 6 5 3 2 4 8 10 10 9 8 6 5 5 6 6 6 6 5 4 2 1
4 2 3 3 4 5 5 4 5 5 5 5 7 5 4 9 5 5 7 7 4 1 2 1 3 3 7 8 9 16 23 28 29 30 31 29 27 27 26 27 25 24 23 22 22 22 22 23 23 23 23 24 23 23 21 20 19 18 17 16 15 15 14 13 12 9 8 7 8 8 8 8 8 8 8 8 8 8 7 4 2 5 9 10 10 8 6 5 5 5 5 5 4 4 3 2 2
2 2 3 5 5 6 5 5 6 5 6 6 7 6 5 9 5 4 2 4 2 1 4 1 2 2 4 8 19 29 31 31 32 32 30 27 26 24 24 24 24 23 22 22 23 23 23 23 24 24 24 24 24 23 21 20 19 17 16 16 15 15 15 13 11 10 9 9 9 9 9 9 9 9 9 8 9 9 8 7 5 4 6 9 10 8 6 4 3 3 3 3 3 3 2 2 3
2 3 5 7 6 6 7 8 7 5 5 6 7 7 6 6 7 4 2 3 2 4 5 3 6 8 10 18 30 33 32 33 32 30 26 23 22 20 20 20 21 22 22 23 23 24 24 23 23 24 24 24 24 22 21 20 18 17 16 16 16 15 15 13 12 11 10 9 9 8 8 8 9 9 9 9 8 8 8 8 7 5 5 7 8 7 5 3 2 1 2 2 3 3 4 3 4
5 3 5 9 6 6 7 9 7 6 7 8 9 5 6 6 6 3 2 4 1 5 4 5 9 11 14 21 28 29 30 29 27 26 23 20 19 19 18 18 20 21 23 25 24 24 24 25 24 24 24 24 23 22 21 20 18 17 17 17 17 16 15 13 12 11 9 8 8 7 7 6 6 7 7 8 8 7 7 7 7 7 6 6 6 6 4 2 1 2 3 4 5 5 5 6 6
5 3 7 8 5 5 6 8 8 8 8 8 9 3 1 5 3 2 5 5 2 4 3 6 10 12 15 16 21 25 25 23 22 22 20 19 18 19 20 19 20 21 23 25 26 25 25 26 25 24 25 24 23 22 21 20 19 18 17 17 17 16 15 13 12 10 8 7 7 6 5 4 4 4 5 5 5 6 6 6 7 7 6 6 6 6 4 3 3 3 4 5 5 5 6 6 6
3 5 7 5 6 5 6 8 9 8 6 6 6 1 4 6 2 3 5 5 4 5 5 7 14 17 18 15 17 21 21 20 20 21 21 21 19 19 19 21 22 22 24 25 26 27 27 26 25 25 25 25 25 23 23 21 19 18 17 17 17 16 15 14 12 10 9 8 7 5 3 3 2 2 3 4 3 4 5 4 4 5 6 6 6 6 4 3 2 2 3 4 5 5 6 6 6
2 8 7 3 6 6 7 8 8 7 4 5 4 1 4 4 3 4 2 3 5 5 2 9 16 19 20 18 17 18 19 19 18 20 22 22 22 19 15 15 18 21 23 24 26 27 27 26 25 26 25 25 26 25 24 22 21 19 18 18 18 16 15 13 12 11 10 8 6 4 3 2 1 1 1 2 2 3 3 2 1 2 2 3 4 3 2 2 2 2 3 4 4 6 7 7 7
5 7 6 5 6 6 5 6 8 7 6 8 6 3 3 2 5 4 2 3 6 2 9 16 18 20 21 20 19 18 18 17 16 19 22 24 24 23 21 18 19 22 23 24 25 27 27 26 26 26 26 25 25 25 24 23 22 20 18 18 18 16 14 13 12 12 10 8 6 3 3 2 1 1 1 1 2 2 3 3 2 1 1 1 1 1 1 2 2 3 4 4 5 5 6 7 8
9 6 3 6 7 7 5 5 8 8 10 9 3 2 2 3 5 0 3 4 2 5 14 20 20 21 22 19 17 16 16 15 16 19 23 27 29 31 31 29 27 27 25 24 26 27 28 28 27 26 26 25 24 24 23 22 21 19 19 18 17 16 14 13 13 12 10 7 5 3 2 3 3 2 3 3 4 3 3 3 2 1 1 2 0 1 1 3 4 4 5 5 4 5 6 7 8
11 8 3 4 6 7 7 7 7 7 9 5 3 5 7 7 3 4 3 2 4 10 15 19 19 19 18 17 17 15 15 15 18 22 24 27 31 31 31 32 32 29 28 28 27 28 29 29 28 28 28 27 26 24 22 21 20 19 19 18 17 15 14 14 14 12 10 7 5 4 3 4 4 3 4 4 5 4 3 3 2 1 2 2 1 1 1 3 4 4 5 4 5 5 7 7 8
8 8 6 5 5 6 7 8 9 8 5 4 5 7 8 7 1 5 2 2 5 11 15 17 18 17 15 15 15 15 17 17 18 23 25 27 31 31 31 33 33 32 33 32 30 28 28 29 29 29 30 30 27 25 23 21 20 20 19 18 17 15 14 14 13 12 10 7 5 5 4 3 4 3 4 4 5 5 5 4 3 2 2 2 1 0 2 3 4 4 5 5 6 7 8 8 9
4 8 9 10 8 6 5 7 9 8 5 6 7 7 8 6 1 1 2 4 7 13 14 14 16 16 15 13 12 13 15 18 22 24 22 23 27 29 30 32 34 36 36 34 32 30 30 31 30 30 31 31 28 26 24 21 21 21 19 18 17 16 15 14 13 11 10 7 6 6 5 5 5 4 4 5 5 5 5 5 4 3 2 1 1 1 3 3 4 4 5 6 6 7 8 8 9
4 6 8 11 10 9 7 7 7 4 5 8 9 7 8 3 2 5 9 7 8 15 14 13 15 14 13 12 10 9 10 17 23 22 20 21 23 26 27 27 29 33 36 35 33 33 33 33 31 31 31 31 30 28 26 23 22 21 19 18 18 16 15 14 13 11 10 9 8 8 7 7 7 5 4 3 3 3 4 4 4 3 2 1 1 2 3 3 3 3 3 4 5 6 7 7 8
5 5 5 7 9 12 12 9 6 5 4 6 9 5 7 6 3 9 14 10 8 14 14 12 13 12 12 11 9 8 10 16 19 18 21 23 24 25 24 23 26 28 31 33 34 34 34 33 32 32 31 31 30 28 27 26 23 21 20 19 18 16 15 14 13 11 11 11 11 9 9 9 8 6 4 3 3 2 2 3 3 3 2 1 1 1 2 2 1 1 2 3 4 6 8 9 10
4 4 4 4 6 10 12 10 6 7 5 6 8 4 7 7 3 11 13 11 12 13 13 12 11 10 10 9 9 8 10 13 15 17 21 22 24 26 26 25 28 27 27 30 33 35 35 34 33 33 33 32 29 27 26 26 24 22 20 18 17 16 15 14 13 12 12 12 11 10 10 9 7 6 5 4 4 3 2 2 2 3 2 1 1 2 2 2 2 3 3 4 6 8 9 10 10
2 4 4 5 4 4 6 9 8 8 5 8 9 5 7 6 5 12 10 12 15 14 12 12 11 9 9 9 9 9 9 11 14 17 20 21 24 28 30 30 29 27 28 31 34 36 36 36 33 32 33 32 29 27 26 25 24 23 21 18 15 14 14 15 14 14 14 13 12 10 9 8 7 6 5 5 4 2 2 2 2 2 2 2 1 2 2 2 3 4 4 6 7 8 9 8 9
2 5 6 6 5 3 3 8 11 10 5 7 10 5 6 5 6 10 9 10 12 14 13 12 11 9 10 8 7 7 7 8 13 16 18 21 24 28 32 32 30 30 32 34 35 36 36 36 32 29 30 31 29 28 26 24 24 22 19 16 14 13 14 15 15 15 15 14 12 10 8 7 7 6 5 5 4 3 2 2 3 3 3 1 1 1 1 2 3 4 5 7 8 8 8 8 8
3 5 5 5 6 3 4 5 9 12 6 5 9 6 4 3 7 8 7 8 10 13 12 11 11 10 10 8 6 8 7 7 10 13 17 21 25 29 32 33 34 35 36 35 34 34 34 34 30 28 29 30 29 29 26 24 23 21 18 16 16 16 16 16 16 15 14 12 10 8 7 7 7 6 5 4 4 3 2 3 3 3 3 2 2 2 1 2 2 4 5 7 6 6 8 9 9
3 2 3 3 6 6 4 5 5 11 10 7 7 6 4 3 10 10 7 8 10 12 12 11 11 10 11 9 7 8 9 9 9 12 17 21 23 28 31 33 36 37 35 35 34 34 34 31 28 27 28 28 29 30 26 23 22 20 19 19 19 18 17 15 14 13 11 9 7 7 7 8 7 6 5 4 5 5 4 4 3 3 3 2 3 2 2 1 2 4 5 5 5 6 8 10 11
3 4 4 2 4 7 8 5 4 9 11 9 7 7 5 3 9 10 7 8 10 11 12 11 11 11 12 10 8 8 9 9 9 12 18 20 22 26 28 30 32 33 32 32 33 32 31 28 25 25 25 25 27 27 25 23 23 23 22 21 19 18 16 14 12 10 9 7 7 6 6 7 7 6 6 6 7 6 6 5 4 4 4 3 3 2 3 2 2 3 3 3 4 6 8 10 11
7 5 5 4 4 5 7 6 6 8 8 8 8 8 6 5 8 10 6 5 6 7 8 9 10 10 9 9 8 9 10 8 8 14 18 19 21 23 24 25 26 27 29 29 29 28 26 24 23 23 23 23 25 26 27 27 27 25 23 20 18 16 14 12 10 8 7 6 6 6 7 8 8 8 8 8 8 8 8 7 6 6 4 3 3 2 3 3 3 3 3 3 4 5 7 10 11
7 5 5 6 5 4 5 6 7 7 7 7 8 9 8 8 10 10 7 6 6 8 9 9 10 9 8 8 8 9 9 7 9 14 17 17 18 19 20 22 23 23 25 27 26 25 23 23 23 22 22 24 27 30 30 30 28 25 22 20 17 15 13 12 10 8 7 8 9 10 11 11 11 11 11 11 10 9 8 8 6 6 4 3 3 3 4 3 3 3 2 3 5 6 10 12 12
4 4 4 4 5 4 6 6 6 5 6 5 7 9 8 6 8 7 7 8 9 11 13 11 11 10 8 8 8 8 7 6 8 10 13 15 14 16 18 20 23 23 23 24 24 22 22 22 22 22 23 25 28 30 30 29 26 24 22 19 17 15 13 12 11 10 11 13 14 14 14 14 13 13 12 11 10 9 8 7 6 5 4 3 3 4 3 2 3 3 3 4 6 8 11 13 14
3 3 3 3 4 3 5 5 3 3 5 4 6 9 4 2 5 4 5 6 6 8 10 10 11 12 10 10 9 10 9 8 9 9 12 14 14 16 18 20 22 22 21 21 20 20 21 22 22 22 24 25 27 28 28 26 24 22 20 18 17 16 13 12 13 14 15 17 17 16 15 15 14 13 12 10 9 8 7 6 5 5 4 3 2 2 3 3 4 4 4 4 5 7 10 13 15
4 4 4 3 3 2 3 4 1 3 3 3 7 5 1 3 4 4 2 2 3 4 4 4 7 9 10 9 9 12 13 11 10 9 11 14 15 17 19 20 20 20 19 19 19 20 21 21 23 24 25 24 25 26 26 25 22 19 18 18 17 16 15 16 18 18 19 19 18 17 15 14 13 12 11 9 8 7 5 5 4 4 3 2 1 2 4 5 6 7 7 6 5 7 9 12 14
4 4 5 3 3 3 3 4 2 3 2 4 8 4 3 1 4 4 1 1 5 5 5 6 6 5 6 6 7 10 11 11 11 12 11 12 15 17 18 19 18 18 18 19 20 21 21 22 23 24 24 23 24 24 25 25 22 20 19 19 17 17 19 21 22 21 20 20 18 16 14 12 11 10 9 7 7 6 6 5 5 4 3 3 2 3 6 7 8 9 9 9 9 9 9 11 13
4 3 6 6 5 4 3 2 3 4 1 2 6 3 3 1 3 5 2 2 5 5 6 10 9 8 8 9 9 10 9 10 10 11 11 11 14 17 17 17 18 18 18 19 20 21 22 23 23 24 23 23 23 23 23 24 23 22 22 22 21 22 21 21 23 22 20 19 17 15 13 10 9 8 7 6 6 6 6 6 5 5 4 5 5 5 7 9 10 11 11 11 12 11 9 12 14
3 5 8 7 6 4 3 1 3 5 4 4 3 5 3 1 2 6 5 4 6 5 7 11 10 9 10 9 9 10 10 10 9 8 10 10 12 15 16 17 19 18 19 20 20 21 22 22 23 23 23 22 22 22 22 23 23 24 24 25 25 25 22 20 21 22 20 19 17 15 13 10 8 7 6 5 5 5 5 6 5 6 6 7 7 7 9 11 12 13 13 14 16 15 14 17 17
3 6 9 8 6 6 5 3 3 3 2 4 1 5 2 2 4 6 7 6 7 7 9 11 11 10 11 10 9 11 12 12 10 9 10 8 10 15 17 18 19 19 20 20 20 21 21 21 21 21 21 22 22 22 21 22 23 22 22 24 24 23 23 22 22 22 20 18 16 14 12 10 8 6 5 4 4 5 5 6 6 7 8 9 9 10 12 13 14 16 17 19 20 20 19 20 20
4 6 9 8 8 6 4 4 2 1 1 4 2 5 3 4 4 4 7 7 8 10 12 13 13 13 13 11 11 12 12 12 11 11 10 9 11 17 19 18 19 19 20 21 21 21 21 21 21 21 21 22 21 21 21 21 22 21 22 23 22 21 23 24 23 22 20 18 16 14 11 10 8 7 6 5 6 6 6 7 8 9 11 11 12 13 15 15 17 20 21 21 21 20 20 20 22
3 6 6 4 4 5 5 4 2 1 0 4 5 5 3 3 4 4 6 7 9 10 11 12 12 13 13 12 12 12 11 10 10 10 10 11 14 18 19 19 19 19 19 21 22 21 21 22 23 22 22 22 21 21 20 20 21 22 24 25 24 23 24 24 22 21 21 18 16 14 12 10 9 9 9 8 8 8 9 10 11 13 13 14 14 15 16 17 18 20 20 20 19 21 21 22 23
5 5 3 3 2 1 2 2 3 2 4 6 7 7 5 2 5 5 7 10 13 11 9 10 12 13 14 13 12 12 11 9 9 9 9 12 16 18 19 19 19 19 19 20 21 22 22 22 23 23 21 21 21 20 19 18 19 22 24 26 27 27 27 26 24 22 20 19 17 14 12 11 11 11 11 11 11 11 12 13 14 15 15 15 16 17 18 18 18 18 19 19 20 21 21 21 21
7 5 3 2 2 2 3 3 2 4 6 6 6 7 7 5 6 5 10 14 14 13 12 15 16 16 15 13 13 13 12 11 10 10 9 11 13 15 19 18 18 21 21 20 22 23 23 23 23 22 20 20 20 18 18 18 18 21 24 27 28 29 28 27 25 23 21 18 17 15 13 12 12 12 12 13 13 13 14 15 16 16 16 17 18 19 19 18 19 18 19 20 20 21 20 19 20
7 5 6 4 1 1 2 2 2 4 5 4 6 8 5 6 6 7 14 15 13 14 15 17 19 18 16 14 13 12 11 12 11 10 10 9 9 12 17 19 19 22 22 22 23 24 23 23 23 22 19 19 19 17 18 18 18 21 25 27 28 28 27 26 25 23 20 18 16 15 14 14 14 14 15 15 15 14 15 16 17 17 18 19 19 19 19 18 19 19 20 21 21 20 20 20 21
8 7 7 6 4 4 5 3 1 2 4 3 5 8 3 4 4 9 17 19 16 14 13 13 14 14 13 12 12 11 11 12 11 10 10 9 10 13 17 19 19 20 22 23 24 24 24 23 22 21 18 18 18 17 18 20 21 23 25 25 27 27 26 25 24 22 20 17 16 15 15 15 16 17 17 17 16 16 16 16 17 19 19 20 19 18 18 18 19 20 21 21 21 20 19 20 20
7 5 6 5 4 5 4 3 3 3 3 2 2 5 4 3 4 8 14 15 9 6 5 7 8 9 10 9 10 10 11 12 11 10 10 9 12 16 18 19 19 20 22 24 24 24 24 23 22 21 20 18 19 18 20 22 24 24 24 25 25 25 25 24 23 21 19 18 17 16 16 16 18 19 18 18 17 16 17 18 19 20 20 19 18 18 19 19 19 21 21 21 21 19 19 20 21
5 4 6 5 5 5 2 3 6 4 2 2 2 3 4 4 4 6 5 9 7 7 8 10 10 10 11 10 10 10 10 12 11 10 10 10 13 17 18 19 19 21 23 23 24 24 24 23 22 22 21 20 20 21 23 24 25 25 25 25 25 25 25 24 23 21 20 18 17 17 18 18 19 19 19 18 17 18 20 22 21 20 18 18 19 19 20 20 19 20 20 20 20 19 20 22 22
4 4 5 5 5 5 3 2 1 4 4 4 2 2 2 0 4 6 6 11 9 9 10 11 12 13 13 12 11 10 10 13 12 10 10 10 13 17 19 19 20 21 23 23 23 24 25 24 23 23 22 21 22 24 25 26 26 26 25 25 25 25 24 23 23 22 20 18 17 18 19 20 19 19 19 18 19 20 22 22 20 20 20 21 21 20 20 19 19 20 20 20 21 20 22 23 22
6 5 6 3 3 2 2 2 2 4 4 4 1 4 2 2 2 4 5 9 9 10 11 11 13 14 14 13 13 11 11 13 13 11 11 10 12 17 19 19 20 22 22 23 23 24 25 25 25 26 25 24 24 25 26 27 27 27 26 25 25 25 24 23 23 22 20 19 20 20 21 21 20 20 19 19 19 21 22 21 21 22 23 22 22 20 19 18 18 20 21 22 22 22 23 24 22
5 6 6 4 4 2 1 2 1 2 3 3 0 2 2 4 4 3 7 11 10 11 12 13 15 16 14 13 13 12 10 12 12 11 10 9 11 17 20 19 19 21 22 23 23 24 25 26 27 28 27 26 26 26 27 27 27 27 26 26 25 25 24 24 23 22 20 21 22 22 22 22 22 20 20 20 20 21 21 21 22 23 23 22 21 19 18 18 19 21 23 23 23 23 25 25 24
3 5 6 3 3 4 3 3 3 3 3 3 0 1 2 5 6 9 14 15 15 14 13 15 17 17 14 12 13 12 11 11 11 10 9 9 12 18 21 20 20 22 23 24 25 26 27 26 27 28 28 27 26 26 27 27 27 27 26 26 25 25 25 24 23 21 21 22 23 23 23 23 23 20 20 20 20 21 22 22 23 23 22 21 20 19 18 19 22 24 24 24 24 25 27 27 26
5 5 6 4 2 3 2 1 2 3 3 3 2 0 5 6 5 12 16 15 16 17 16 14 15 15 14 13 13 12 11 11 11 11 10 9 12 18 21 21 21 22 24 25 26 27 27 27 27 29 29 28 26 26 27 27 27 27 26 26 25 25 25 23 22 22 23 23 23 23 24 23 22 20 19 19 20 21 22 23 23 22 21 20 20 19 19 21 24 25 25 25 25 27 28 27 26
7 5 5 6 5 4 3 2 2 2 3 4 5 3 6 6 4 10 13 13 16 18 17 15 14 16 15 14 14 14 12 12 13 13 12 10 12 17 21 21 22 23 24 25 26 27 27 27 27 28 29 29 27 26 27 27 27 26 26 26 25 25 24 23 23 23 23 24 24 24 24 22 21 19 18 19 21 22 22 23 23 22 22 21 20 20 21 23 26 26 26 26 26 28 28 27 27
Wind_Direction
335 337 339 332 328 338 13 58 29 329 66 8 280 293 272 214 341 309 330 349 346 348 353 348 360 52 83 165 181 211 160 170 169 147 217 255 129 152 162 160 160 157 154 155 155 154 155 157 157 157 156 155 154 155 153 149 145 142 138 136 134 132 129 128 126 123 121 121 121 122 121 122 121 120 119 118 119 117 115 112 110 108 105 100 95 92 89 80 70 75 78 82 85 88 95 105 118
338 336 339 334 335 13 334 73 74 319 38 334 282 241 264 324 346 300 298 354 329 271 349 27 11 4 342 358 132 222 136 183 161 150 252 136 132 150 163 161 160 156 153 154 154 154 156 157 156 156 155 155 155 155 153 150 147 142 139 136 135 133 131 129 127 127 124 122 123 122 123 123 123 122 120 119 120 117 114 112 110 106 100 96 93 90 86 76 69 72 77 84 90 96 101 106 115
340 337 342 345 353 48 32 45 78 213 66 263 273 253 276 326 294 277 255 246 260 250 348 12 334 356 354 335 332 213 204 339 123 118 115 149 144 155 163 162 160 156 152 152 155 157 157 155 155 156 154 155 155 155 154 151 147 142 139 136 135 133 131 129 127 128 126 125 126 123 125 126 124 123 122 120 117 113 111 110 108 103 97 94 92 89 83 77 71 71 81 93 100 107 111 114 117
338 338 344 2 19 35 62 46 152 144 177 228 270 268 233 261 260 276 262 216 244 273 333 332 287 171 104 275 295 318 252 337 161 139 132 171 165 157 160 159 157 154 151 152 157 158 156 155 154 154 153 155 155 154 154 150 147 142 139 135 134 133 131 129 127 128 126 127 126 124 127 128 125 123 123 120 116 113 112 111 110 107 103 105 106 101 90 81 74 74 92 107 114 117 118 118 118
329 331 348 39 73 13 92 89 130 134 199 194 241 271 241 231 258 282 278 246 228 238 261 226 277 275 121 206 245 276 236 53 171 180 132 169 164 154 155 154 152 149 150 153 156 157 156 154 152 153 152 153 154 153 153 150 145 140 137 135 135 135 132 128 126 127 126 127 126 126 128 129 128 125 124 122 124 123 122 123 122 120 118 125 128 119 95 80 75 79 103 119 123 123 121 118 115
326 334 19 54 93 157 118 171 213 201 217 175 197 270 268 249 260 280 290 297 252 198 226 210 202 204 122 261 174 182 249 143 145 178 150 152 158 153 151 150 148 148 149 151 154 155 153 153 152 152 150 151 152 151 152 147 141 138 136 136 137 135 131 128 128 128 128 129 129 130 131 130 130 130 127 127 130 128 131 133 132 131 125 125 125 117 95 81 74 82 110 128 131 129 124 119 113
343 354 27 57 29 44 120 191 210 229 230 179 191 252 270 268 264 283 299 310 302 167 179 202 140 105 238 274 164 18 21 152 147 159 157 148 152 150 148 148 147 146 147 150 152 151 151 152 152 151 148 148 148 149 150 143 138 137 137 138 138 135 131 130 130 130 130 132 133 133 134 132 132 135 133 134 136 136 141 141 145 146 128 114 114 110 95 84 77 85 115 133 137 135 129 122 112
352 50 34 106 161 358 126 196 212 218 239 209 215 236 259 270 266 283 286 294 301 297 92 177 143 142 265 34 185 356 42 100 143 147 149 144 147 145 145 146 144 144 146 150 148 147 151 152 150 148 147 146 145 147 146 140 138 137 138 140 139 136 132 132 132 132 132 133 135 133 133 131 135 139 139 146 150 157 163 154 155 160 138 124 119 109 96 89 81 87 119 138 142 140 134 125 115
44 79 114 132 180 262 191 222 234 229 252 240 241 240 255 271 266 269 270 271 279 283 253 184 164 200 259 296 215 324 52 106 129 134 140 142 145 144 144 145 143 142 145 146 144 147 151 150 147 146 146 146 145 145 144 140 140 139 140 142 140 137 135 136 135 133 132 131 130 127 128 128 138 147 155 170 166 166 181 173 151 155 143 131 123 111 101 94 85 89 118 140 146 145 139 130 122
45 35 153 137 153 220 246 242 238 241 246 229 234 239 250 265 266 259 261 270 264 274 272 163 161 202 221 220 292 347 102 124 124 125 135 141 144 143 143 143 143 142 144 143 145 149 147 146 145 146 147 147 146 145 145 142 143 144 144 144 142 140 140 141 138 135 132 128 124 121 122 125 141 157 175 191 181 169 185 188 164 159 152 142 134 119 108 100 90 90 111 137 147 149 145 137 129
48 342 134 178 200 219 232 234 238 240 252 248 252 243 240 250 267 268 259 268 262 265 272 129 167 197 149 184 327 91 130 131 128 128 136 140 140 142 140 140 142 142 143 145 147 146 144 146 146 147 149 149 150 149 147 147 148 148 147 145 143 144 145 143 138 134 129 123 119 114 113 120 131 150 172 191 195 190 187 195 183 166 159 157 148 129 117 108 98 93 105 131 146 151 150 146 134
138 228 110 187 213 218 213 221 239 240 263 279 266 249 223 230 258 266 260 265 268 274 247 183 179 156 126 268 336 115 127 129 131 132 138 139 137 139 138 138 140 141 144 146 146 144 145 148 149 151 152 152 153 151 150 150 152 151 149 147 146 148 146 141 135 130 126 120 114 113 112 117 120 127 152 173 194 207 203 200 186 167 163 166 158 140 126 115 104 95 100 120 141 152 154 153 141
161 168 122 188 205 198 197 212 239 243 266 235 236 249 204 216 241 249 260 271 272 280 256 198 165 129 137 222 98 124 121 126 130 132 137 135 135 137 137 138 139 142 144 145 144 145 148 149 150 152 154 153 152 151 151 153 153 151 150 149 150 149 144 138 133 129 125 121 118 119 120 121 118 114 119 128 151 196 205 196 181 170 168 172 164 148 133 121 109 98 97 109 128 145 157 164 164
181 172 145 204 216 184 192 198 229 233 254 228 228 251 220 216 233 247 267 282 275 263 255 183 152 124 130 157 131 157 127 131 132 130 132 132 134 135 135 137 138 140 141 143 144 146 149 150 151 152 153 152 151 152 152 154 154 152 152 152 152 148 142 137 133 131 128 127 125 122 123 119 110 99 93 88 80 91 169 187 180 173 173 174 167 153 140 125 111 102 99 102 113 127 143 163 193
186 166 126 188 205 192 214 198 196 218 241 225 226 237 241 248 238 268 258 259 279 254 218 155 152 145 184 179 170 170 140 135 132 128 128 128 130 130 132 134 134 138 140 143 143 145 148 150 151 152 153 151 152 153 153 155 155 154 154 154 152 147 142 138 136 134 131 126 117 111 111 106 100 92 84 76 68 67 75 134 175 175 174 173 169 160 146 130 112 101 97 97 100 105 109 110 134
172 110 110 209 204 204 218 185 178 211 246 234 237 238 265 277 241 243 245 221 271 335 89 141 178 155 177 180 153 144 139 134 131 128 125 122 122 123 126 129 132 136 140 143 144 146 147 151 154 154 154 152 153 154 154 155 156 157 156 155 152 148 145 141 138 134 126 118 108 103 101 100 96 87 82 76 70 67 65 74 118 170 176 173 171 167 154 138 117 97 87 83 81 82 74 59 44
131 128 207 226 204 206 192 175 184 193 239 244 255 254 244 282 269 230 247 128 159 15 41 37 347 46 132 133 132 136 135 134 131 126 121 118 118 118 121 126 131 135 141 146 148 151 152 155 156 155 155 154 155 155 156 156 156 158 158 157 155 152 148 144 140 131 121 115 112 106 98 97 91 84 81 77 73 71 68 70 79 124 168 175 176 174 160 142 114 88 72 61 54 47 32 21 1
165 171 211 221 197 196 178 181 188 167 214 236 249 239 204 259 289 275 348 51 100 75 35 33 48 57 94 115 126 131 132 132 131 127 121 119 120 118 122 128 134 139 146 151 154 156 156 156 156 157 157 156 156 156 157 157 159 161 161 160 158 156 151 148 145 135 126 119 117 108 97 93 89 85 81 76 70 68 70 70 76 93 135 167 178 177 167 151 114 61 38 23 15 11 7 359 343
194 159 202 221 193 188 181 175 181 172 197 226 243 217 179 229 260 298 332 319 360 99 50 53 79 84 97 111 121 125 127 128 127 124 118 118 122 122 128 137 142 148 153 155 157 159 158 158 159 160 158 158 158 156 158 160 163 165 165 165 162 159 157 154 150 143 134 125 120 110 99 92 89 87 81 75 62 56 66 70 74 81 106 142 166 172 166 151 104 47 34 20 10 4 1 360 354
198 166 216 225 181 192 201 178 190 200 189 216 242 214 209 257 239 326 309 290 263 163 154 104 116 116 112 112 117 120 119 117 116 113 110 114 121 130 140 150 154 157 160 159 159 162 163 163 164 163 161 161 160 158 161 165 166 168 169 168 166 164 162 159 155 149 139 130 127 118 105 97 91 83 87 88 65 52 56 66 73 73 86 110 134 141 127 109 83 54 39 21 6 357 355 358 357
183 201 220 201 160 194 221 202 205 214 192 210 238 7 307 287 291 293 296 288 267 221 213 153 145 132 122 118 117 122 119 117 119 119 121 126 132 143 151 157 160 163 162 161 162 166 168 168 167 165 164 164 163 163 166 169 170 172 172 171 172 170 167 162 158 153 144 138 133 125 119 117 105 89 97 103 80 55 46 55 71 71 79 95 113 116 97 83 60 36 21 13 2 354 355 358 357
212 222 218 167 162 196 219 209 216 222 216 239 249 281 265 288 308 262 232 240 250 240 193 131 136 131 127 129 129 130 129 131 135 137 138 138 139 141 147 154 160 164 164 165 166 169 172 172 170 167 167 168 168 168 169 172 174 176 175 174 177 175 170 165 160 156 150 146 141 143 150 145 138 116 97 94 61 39 18 12 46 73 86 93 114 121 86 61 33 8 2 2 356 348 348 350 349
239 236 213 201 188 199 211 196 218 223 222 243 239 228 236 335 301 255 144 260 272 245 122 121 128 131 131 134 136 138 139 141 144 145 144 140 140 144 152 160 168 170 168 171 171 172 175 175 173 171 171 172 173 172 171 174 176 178 176 178 182 177 173 168 160 154 152 151 149 161 183 191 206 267 308 305 315 333 330 306 266 241 175 134 127 164 57 41 12 353 350 345 344 342 341 341 341
234 244 215 214 208 216 224 198 209 211 221 233 221 247 249 261 274 352 49 326 322 105 121 125 129 132 133 133 135 136 137 140 141 146 148 147 151 157 160 165 173 174 171 175 175 174 176 176 175 175 175 176 177 176 176 178 178 178 178 182 183 178 175 166 155 152 154 157 159 180 216 225 230 268 304 306 297 300 313 285 237 238 203 178 172 217 346 360 348 348 352 350 349 347 347 343 340
234 236 246 226 218 225 233 234 222 214 226 220 180 246 252 245 256 68 58 356 93 117 122 125 126 128 132 135 135 134 136 139 142 148 152 155 156 159 164 167 171 172 172 176 178 178 178 177 177 178 179 179 180 180 181 182 181 180 180 183 183 180 174 161 157 159 160 162 175 199 223 236 236 267 309 315 294 281 283 266 242 240 211 197 177 158 346 348 349 354 359 358 355 350 350 347 342
228 221 244 247 239 235 228 236 236 229 224 163 181 230 256 258 316 61 79 117 119 122 122 124 125 127 133 139 140 142 145 146 149 153 157 159 158 162 169 170 170 172 173 176 180 180 179 180 181 181 182 182 181 182 183 183 183 183 183 182 180 178 173 164 165 168 167 166 177 193 208 233 240 272 310 308 288 277 270 261 258 249 230 224 202 61 7 359 359 360 360 357 353 352 349 345 340
233 202 228 241 248 258 227 225 236 239 227 180 184 218 247 253 193 130 133 146 142 121 121 130 129 132 138 140 143 147 149 151 154 154 156 162 164 167 172 173 172 172 173 176 178 179 180 183 185 183 183 183 183 184 184 183 185 186 184 180 178 177 173 169 171 173 175 172 171 184 202 224 242 269 297 302 295 284 268 251 245 236 225 201 161 32 19 7 2 3 5 4 359 355 350 343 337
278 208 225 237 242 259 246 241 240 227 236 195 180 219 244 234 195 184 157 166 159 129 131 140 135 137 140 138 142 147 150 156 158 157 161 168 171 170 171 176 175 172 173 175 175 177 181 185 187 185 183 183 184 185 185 186 189 187 184 180 178 178 175 175 176 179 182 181 182 192 209 221 233 253 276 291 283 276 254 225 217 207 183 142 101 29 5 354 360 7 5 8 2 355 349 342 337
263 232 235 239 235 246 239 242 234 189 228 184 163 221 249 239 215 157 151 165 158 135 139 146 143 140 140 142 143 150 158 163 166 168 170 169 170 168 166 175 177 175 177 175 174 178 182 186 188 187 184 182 182 183 185 188 190 188 184 181 181 182 182 185 186 188 191 193 199 208 218 221 229 243 243 228 215 223 209 195 199 184 165 128 86 17 347 344 352 348 353 4 357 348 343 340 338
245 224 222 237 236 243 227 225 218 198 219 161 156 223 250 253 184 145 153 156 147 141 147 149 148 144 145 150 149 159 166 170 175 174 173 169 168 165 164 175 179 179 180 177 178 180 183 187 189 189 185 179 177 179 185 188 189 190 187 184 187 192 195 198 200 201 201 203 208 212 216 221 235 241 221 211 217 214 196 189 188 177 163 125 69 6 348 355 356 350 352 353 349 345 343 343 341
205 175 193 207 217 245 213 206 194 202 225 161 170 227 246 257 152 154 160 158 152 146 155 155 152 152 149 155 157 165 172 176 178 173 173 171 168 166 168 176 180 182 182 183 184 181 184 188 190 194 184 171 168 172 181 188 190 192 190 188 193 200 202 204 206 203 204 208 207 207 211 224 239 232 207 212 229 230 231 221 188 166 137 110 42 12 15 26 24 10 359 351 349 348 345 347 344
182 182 203 198 205 273 229 207 186 194 225 167 180 219 250 243 171 169 163 167 159 146 158 160 154 155 149 156 162 163 169 172 174 174 175 172 170 170 171 176 181 184 186 189 189 184 186 189 192 196 181 164 162 166 177 187 190 193 193 194 196 194 190 191 194 196 201 205 204 205 215 227 228 217 208 223 239 244 246 194 166 150 139 117 88 110 83 68 45 20 6 356 353 354 350 348 345
248 199 198 188 190 227 251 238 194 186 197 196 199 202 248 228 170 178 169 176 166 147 161 162 155 160 153 158 164 164 167 165 171 179 178 173 173 174 173 178 183 187 190 191 191 188 189 191 194 193 176 164 164 168 178 187 189 192 191 188 185 180 179 180 183 188 194 198 203 211 216 214 207 201 209 216 214 211 184 157 149 143 153 141 132 137 105 87 31 15 11 2 358 359 356 353 349
251 173 179 206 174 176 217 261 213 180 187 214 212 200 228 196 163 175 182 180 167 154 163 164 161 162 159 161 163 168 170 170 175 180 180 176 177 178 176 181 185 189 192 193 193 191 190 193 196 190 177 172 172 172 180 186 187 186 182 179 177 175 176 178 181 186 191 195 201 208 206 198 193 195 199 182 169 173 166 155 143 135 148 145 138 125 98 82 16 14 14 9 5 2 4 1 354
175 148 162 211 162 176 199 228 218 174 186 204 196 204 220 165 162 174 179 181 175 166 163 165 167 164 165 165 166 172 172 174 175 175 180 180 181 181 180 183 186 189 191 192 192 191 191 194 195 190 185 184 179 175 179 182 181 178 174 173 174 175 177 178 183 187 190 194 197 195 189 183 183 183 178 166 157 154 152 146 137 132 141 150 145 128 105 69 31 24 17 19 9 8 12 4 355
155 161 152 166 161 194 206 220 223 169 171 199 186 196 196 158 173 177 172 177 176 165 155 161 167 164 167 167 168 173 174 175 168 173 181 185 186 183 183 186 186 187 189 188 189 188 190 193 194 191 190 188 179 173 172 172 171 171 171 171 171 174 177 179 181 182 180 187 187 171 164 164 163 160 157 157 152 145 142 138 136 133 138 150 143 117 88 58 42 28 18 16 359 360 3 358 354
146 155 151 167 167 211 220 219 228 168 157 204 186 184 192 174 181 181 162 152 159 162 160 169 170 166 171 172 172 172 172 166 158 173 184 188 190 186 184 184 181 182 184 186 186 185 188 192 193 190 187 184 177 170 167 167 167 167 168 169 171 172 175 175 168 164 161 156 152 148 151 153 149 145 144 148 147 144 140 134 132 127 126 130 115 97 82 68 56 42 29 21 8 9 12 7 359
146 155 164 174 172 210 228 217 229 179 162 211 179 175 196 178 174 176 153 156 174 175 170 174 172 167 171 174 173 168 162 153 156 173 186 188 189 186 182 176 175 177 180 183 183 182 187 190 190 187 181 178 176 171 168 169 171 172 170 169 171 167 166 166 155 148 148 144 143 144 145 144 143 140 141 145 146 145 141 133 126 117 112 108 104 96 80 62 50 42 22 24 28 31 32 21 9
189 164 150 175 195 219 252 251 252 168 170 217 179 173 190 123 129 142 160 174 185 189 184 178 172 170 175 179 175 169 164 163 167 172 182 185 182 181 179 174 176 178 178 179 178 179 183 185 185 183 178 176 175 173 172 172 173 176 176 172 169 160 150 150 146 144 147 145 140 140 140 140 142 141 141 148 151 148 143 135 127 121 115 104 103 86 60 46 42 41 31 32 41 44 46 36 26
193 157 146 203 223 176 225 259 285 139 151 161 156 154 60 59 98 126 186 193 141 169 193 173 176 180 182 183 174 172 172 170 171 172 178 180 176 178 179 176 177 177 175 173 173 176 177 180 182 180 178 176 174 174 175 175 173 173 172 166 162 152 141 141 141 140 143 140 134 134 136 138 142 141 142 150 154 152 151 148 145 142 128 102 78 56 57 53 49 47 44 43 48 51 53 48 42
195 159 156 197 211 172 215 240 178 119 79 119 121 82 343 104 132 160 222 161 142 150 154 158 185 197 186 185 183 184 181 173 172 171 174 174 173 178 178 175 175 174 173 169 170 173 173 177 181 180 178 175 175 176 176 177 174 168 161 155 150 141 137 139 135 132 134 134 132 131 132 136 140 140 141 146 149 148 148 150 151 144 128 100 75 69 71 65 60 55 50 53 60 61 64 61 55
211 198 176 185 188 195 272 274 158 135 262 219 126 102 283 180 150 200 211 176 166 155 157 169 183 187 186 191 189 192 189 182 178 172 171 170 169 174 174 172 173 173 171 169 171 173 173 177 180 180 178 175 177 179 179 180 178 172 163 152 144 139 137 137 135 133 132 132 131 130 129 133 139 139 137 136 138 140 138 138 135 132 120 103 92 85 81 73 65 62 56 58 63 64 71 70 62
208 217 185 188 194 204 249 250 149 168 220 255 165 160 239 295 221 217 200 183 183 170 169 178 185 187 193 197 187 185 187 185 182 172 170 167 162 167 170 173 173 171 171 171 173 175 175 176 178 179 177 178 180 180 183 184 181 176 167 156 149 145 141 137 138 139 137 134 133 133 132 131 133 134 132 128 130 137 133 130 126 123 115 105 100 90 82 76 72 71 67 67 70 68 72 71 63
220 214 173 179 196 202 208 170 146 184 229 302 241 137 139 262 231 196 177 178 186 188 185 185 191 194 198 198 186 184 187 183 177 172 171 165 160 167 172 174 173 170 170 172 173 174 175 173 174 179 179 181 184 183 185 184 176 166 158 152 147 147 144 139 140 139 138 138 136 134 132 129 126 122 123 124 126 128 128 130 126 121 114 104 99 90 85 85 82 81 77 77 77 74 74 75 69
213 190 164 179 192 189 186 166 155 115 35 310 271 122 125 261 259 158 162 182 195 203 202 196 194 195 197 195 185 186 188 183 178 174 173 168 165 173 175 173 172 169 169 172 174 174 174 172 176 182 184 184 185 185 183 179 172 162 156 152 146 146 145 142 142 140 140 142 137 133 131 126 120 115 118 122 123 123 125 129 124 118 111 101 96 94 94 94 89 85 82 80 81 78 78 78 74
175 151 143 145 166 173 180 188 178 84 188 241 217 153 138 269 266 162 160 194 206 210 209 202 197 194 195 190 183 186 185 180 179 175 173 170 171 175 175 170 170 168 167 171 174 174 174 175 178 181 183 185 185 185 182 175 173 172 167 160 152 148 145 143 143 141 141 143 137 134 130 123 120 117 119 119 119 121 122 123 119 112 105 99 97 98 99 97 91 88 85 83 83 83 81 78 74
147 140 127 68 54 136 154 159 116 142 246 238 202 172 151 238 256 189 178 200 199 199 202 200 200 196 192 187 182 183 181 176 175 172 167 166 169 171 170 168 165 162 161 165 170 174 176 177 177 177 179 183 183 183 181 175 173 173 169 163 156 152 151 150 149 144 144 144 139 135 131 126 123 120 119 115 114 118 119 116 113 108 103 99 98 98 97 95 94 92 89 87 86 84 81 77 72
155 141 133 110 329 2 45 23 94 178 248 251 198 169 159 215 252 202 204 212 197 191 195 193 194 193 188 185 181 180 178 171 170 170 166 162 162 164 165 163 158 157 160 163 167 174 177 177 176 174 175 180 182 181 179 176 176 174 169 164 160 158 159 158 154 149 149 148 143 138 135 131 127 123 120 116 116 119 117 114 111 106 100 98 99 98 97 96 97 97 94 90 86 81 76 72 69
166 147 144 154 195 191 193 227 189 204 246 245 177 154 170 231 243 205 208 215 201 195 200 194 190 188 184 181 177 175 171 166 168 171 169 163 159 158 159 158 156 158 163 166 167 173 176 177 176 172 172 178 180 178 177 176 177 175 168 163 161 162 163 161 158 155 154 152 148 144 139 134 128 124 121 120 121 121 117 114 108 102 100 102 103 102 100 101 102 99 94 88 81 77 72 68 67
177 167 164 167 162 170 199 213 207 219 239 244 168 159 200 258 247 210 206 209 202 198 202 193 183 178 174 172 170 168 165 164 168 171 169 165 161 158 156 160 162 163 167 168 168 171 173 174 176 172 169 175 176 174 175 173 171 171 167 164 164 163 161 161 160 158 156 154 150 146 141 134 127 124 123 124 123 121 116 111 105 104 107 109 108 106 105 105 103 97 91 85 79 75 71 67 68
181 153 137 160 169 166 187 193 182 201 235 278 149 166 193 194 237 235 211 204 191 171 165 149 149 155 156 158 163 166 167 164 167 170 166 162 160 156 156 163 168 167 167 167 167 170 171 171 174 171 167 170 171 171 172 170 167 167 168 168 167 165 163 162 161 159 157 154 150 146 139 131 127 126 127 126 124 120 116 112 110 111 112 113 111 109 108 106 101 94 89 84 79 73 69 70 72
184 117 122 181 186 152 135 172 174 167 199 252 168 194 217 196 276 303 180 162 140 126 127 128 138 150 153 159 166 169 168 165 168 169 161 158 157 155 159 167 170 167 165 166 167 168 169 170 172 171 168 168 168 168 170 169 167 167 169 169 168 167 166 162 159 158 156 153 150 145 138 133 131 131 130 128 123 119 117 115 113 112 113 114 114 113 109 105 98 92 88 83 78 74 73 75 75
168 142 171 198 168 137 124 195 172 109 157 232 198 199 286 274 313 337 114 135 134 135 138 141 149 155 159 166 170 173 169 164 169 168 159 158 155 156 163 168 167 165 164 165 167 167 169 170 169 166 165 165 166 167 168 168 168 168 169 170 169 169 167 164 161 157 154 150 148 145 140 137 137 135 133 130 126 122 120 117 113 112 113 113 113 112 107 102 96 91 87 84 82 81 80 78 74
150 187 205 176 114 109 108 155 356 70 164 250 204 169 194 150 258 323 112 138 149 147 146 150 155 162 170 173 173 173 165 161 165 164 159 156 152 156 164 168 167 165 164 164 165 165 167 169 167 164 161 161 164 165 166 168 168 168 168 169 169 168 167 165 161 156 152 149 147 147 145 142 141 139 137 135 132 128 124 120 116 114 113 112 110 107 103 98 94 91 90 88 87 85 82 78 74
153 182 192 149 146 195 125 150 172 128 178 250 306 172 199 184 202 199 156 164 169 156 151 158 166 173 175 172 172 169 158 156 160 158 157 156 154 158 162 164 164 163 163 162 161 161 163 165 165 163 161 160 162 163 164 166 167 167 167 167 167 166 165 162 158 154 152 150 149 149 147 144 142 141 140 138 135 131 127 122 118 116 113 110 106 102 99 96 95 96 96 91 87 85 82 79 77
170 170 178 161 149 166 166 162 164 165 185 208 215 356 249 222 205 185 182 181 172 162 165 172 175 176 172 168 170 167 160 158 156 154 156 156 156 158 160 161 161 160 158 158 158 158 160 161 160 159 159 159 160 162 163 164 165 166 165 164 163 162 162 159 155 154 153 152 150 149 146 144 143 142 142 140 135 132 129 124 120 117 113 108 104 101 100 100 100 100 96 91 88 86 84 81 80
184 175 172 174 157 140 148 162 150 144 159 177 159 252 262 250 202 187 190 183 172 171 175 178 175 171 169 166 165 165 163 158 155 157 159 157 155 154 155 158 157 154 153 154 156 156 157 158 156 157 158 159 161 161 163 163 163 164 162 160 160 159 158 156 154 155 155 153 151 148 146 144 143 142 142 140 135 132 129 125 121 117 112 108 105 103 103 105 105 101 94 91 90 89 86 84 83
172 170 175 185 178 130 133 204 247 118 144 173 151 179 262 266 204 196 196 184 180 178 174 171 170 168 166 165 164 163 162 158 157 160 160 158 154 149 149 150 150 150 149 151 154 154 154 155 155 156 157 160 163 162 162 161 160 161 160 159 158 157 157 155 155 155 154 152 150 148 147 145 142 141 142 141 137 133 130 127 122 116 112 109 107 106 107 109 108 101 95 93 92 90 88 86 85
Height
768 769 767 767 765 765 768 769 788 796 796 811 806 801 795 785 785 782 781 777 775 772 765 765 761 760 766 768 767 765 765 769 772 782 784 765 759 762 761 764 766 769 773 776 778 779 782 785 788 791 793 795 798 799 800 800 801 801 802 802 803 805 806 808 809 810 810 811 812 812 813 814 814 815 815 816 816 817 817 817 818 818 818 818 818 818 818 818 818 819 819 819 819 819 819 819 820
768 768 767 767 765 767 774 775 798 806 804 817 807 799 794 785 787 784 783 780 777 772 763 763 763 764 764 761 761 764 764 762 761 764 765 761 762 763 763 765 767 770 774 778 779 780 782 785 788 791 793 796 798 799 800 801 801 802 802 803 804 806 807 809 809 810 811 812 813 814 814 815 816 816 816 817 817 818 818 818 819 819 819 819 819 819 819 819 819 819 819 820 820 820 820 820 820
768 768 766 766 765 768 777 782 800 811 814 820 806 793 790 788 788 782 779 777 771 766 763 762 763 764 766 768 767 768 766 762 761 761 763 762 761 762 765 766 768 772 775 780 782 782 783 785 788 791 794 796 798 800 801 802 802 803 803 804 805 807 808 809 810 811 812 813 814 815 815 816 817 817 818 818 818 819 819 819 820 820 820 820 820 820 819 819 819 819 820 820 820 821 821 821 821
768 768 767 766 770 774 783 792 800 808 815 818 807 791 786 788 784 778 774 772 767 764 765 765 766 762 765 774 771 768 767 763 761 761 763 762 761 762 765 768 770 773 777 781 783 785 785 786 789 791 794 797 799 801 802 803 803 804 805 806 807 808 809 810 811 812 813 814 815 816 817 817 818 818 819 819 820 820 820 821 821 821 821 821 820 820 820 820 820 820 820 820 821 821 821 822 822
769 769 768 767 776 781 787 798 802 807 809 808 803 788 783 784 781 776 770 768 767 767 766 765 769 762 762 768 768 769 766 763 762 761 764 764 764 764 766 769 771 774 778 782 785 787 788 789 791 793 795 798 800 802 803 804 805 805 806 807 808 809 810 812 812 813 815 816 816 817 818 819 819 820 820 821 821 821 821 821 821 821 821 821 821 821 820 820 820 820 820 821 821 822 822 822 823
769 769 768 768 776 780 789 802 804 805 798 794 797 786 779 779 778 775 768 765 763 765 763 764 767 765 767 764 762 766 762 761 762 761 764 765 767 768 769 770 772 775 779 783 786 789 791 792 793 795 797 799 801 803 804 805 806 807 807 808 809 811 812 813 814 815 816 817 818 818 819 820 821 821 821 822 822 822 822 822 822 822 822 822 821 821 821 821 821 821 821 821 822 822 823 823 824
770 771 772 775 779 782 795 802 800 800 792 788 789 783 777 775 775 774 771 768 761 761 762 762 763 766 770 765 763 762 758 759 759 761 764 766 769 771 772 773 774 776 779 783 787 791 793 795 796 797 799 800 802 804 805 806 807 808 809 810 811 812 813 814 815 816 817 818 819 820 821 821 822 822 822 822 823 823 823 823 823 823 823 822 822 822 821 821 821 821 821 822 822 823 823 823 824
770 773 777 781 788 791 798 800 797 796 790 786 783 778 775 771 773 774 774 773 766 762 764 763 761 769 769 763 768 763 758 760 758 761 763 767 770 773 775 776 777 778 780 783 787 792 794 796 798 799 800 802 803 805 806 807 808 809 810 811 812 813 814 815 816 817 818 819 820 821 821 822 822 822 823 823 823 823 823 823 823 823 823 823 822 822 822 822 822 822 822 822 823 823 823 824 824
770 774 779 784 792 796 799 798 796 794 788 784 780 776 773 769 772 773 773 773 767 763 763 762 761 771 769 763 768 763 761 763 760 762 764 768 771 773 776 777 779 781 783 784 788 792 795 797 799 801 802 803 804 806 807 808 809 810 811 811 812 813 814 815 816 817 818 820 820 821 822 823 823 823 823 823 824 824 824 824 824 824 823 823 823 823 823 822 822 822 822 823 823 823 824 824 825
772 775 780 787 794 799 801 799 794 790 784 779 776 773 772 769 769 770 771 770 766 763 761 759 762 768 767 767 769 764 765 764 761 765 768 770 772 774 776 778 780 782 785 787 789 791 795 798 799 801 802 804 805 806 807 808 809 810 811 811 812 813 814 815 816 818 819 820 821 822 823 823 824 824 824 824 824 824 824 824 824 824 824 824 823 823 823 823 823 823 823 823 824 824 824 825 825
777 778 780 789 797 800 801 798 792 787 780 777 775 771 770 768 769 769 769 767 761 762 761 760 765 766 767 770 771 767 766 765 763 766 771 773 775 776 777 780 782 784 787 788 790 792 795 797 799 800 801 803 804 805 806 807 808 809 811 811 812 813 814 815 816 818 819 820 821 822 823 823 824 824 824 824 824 824 824 824 824 824 824 824 824 824 824 824 824 823 824 824 824 825 825 825 826
779 781 781 790 794 795 794 792 788 784 780 779 776 768 765 766 770 768 766 765 759 761 761 759 760 761 770 774 771 768 767 769 766 767 772 774 776 778 779 782 785 787 788 790 792 793 794 796 798 800 801 802 803 805 806 807 808 809 811 812 813 814 815 816 817 818 819 820 821 822 823 824 824 824 824 824 824 824 824 824 824 825 825 825 825 825 825 824 824 824 824 824 825 825 825 826 826
777 780 782 788 787 786 788 789 784 783 782 778 773 765 762 765 767 764 762 762 758 762 758 753 753 755 770 775 770 770 769 772 770 770 772 775 778 779 781 784 787 789 790 792 794 794 795 796 797 799 800 802 803 805 806 808 809 810 811 812 813 814 815 817 818 819 820 820 821 822 823 824 824 825 825 824 824 824 824 824 825 825 825 826 825 825 825 825 825 825 825 825 825 825 826 826 826
773 775 778 784 784 781 782 785 783 785 782 772 768 762 760 762 760 758 760 762 757 756 750 745 749 756 770 775 774 772 771 773 773 773 773 776 779 781 783 786 789 791 793 795 795 796 796 797 797 798 800 802 804 805 807 808 810 811 812 813 814 815 816 817 818 819 820 820 821 822 823 824 825 825 825 825 825 825 825 825 825 825 826 826 826 826 826 826 826 826 826 826 826 826 826 826 826
770 772 775 781 783 781 779 780 779 783 778 767 764 759 759 757 754 757 757 760 754 746 744 743 745 754 763 767 770 770 769 772 773 775 775 779 782 783 786 788 791 793 795 797 797 798 798 799 799 800 801 802 804 806 808 809 811 812 812 814 814 815 816 817 819 819 820 821 821 822 823 824 825 825 825 825 825 825 825 825 825 825 826 826 827 827 827 827 827 827 826 826 826 826 826 826 826
768 771 776 779 779 780 779 778 777 780 775 764 759 756 761 756 751 755 749 749 750 744 745 747 746 750 754 755 759 762 767 771 773 775 777 781 784 787 789 790 793 794 796 798 799 799 799 800 801 801 801 802 804 806 808 810 811 812 813 814 814 815 816 817 818 819 820 821 822 823 824 825 825 826 826 826 826 826 826 826 826 826 826 827 827 828 828 828 828 828 827 827 827 827 827 826 826
767 772 779 780 779 778 776 775 775 775 768 761 757 756 762 758 749 748 742 742 749 748 748 750 749 747 750 751 753 759 765 770 772 775 778 783 786 789 792 793 794 795 797 797 798 799 799 800 801 802 802 803 804 806 808 810 812 813 814 814 815 815 816 817 818 819 820 821 823 824 825 826 826 826 827 827 827 827 827 827 827 827 827 827 828 828 828 829 828 828 828 828 827 827 827 827 826
769 774 779 777 776 773 766 766 765 763 762 759 756 755 760 760 752 745 743 747 749 750 752 752 752 750 751 752 755 761 766 770 773 776 779 784 787 790 793 794 795 795 796 796 797 797 798 800 801 802 802 803 805 806 808 810 812 813 814 814 815 815 816 817 818 819 821 822 823 824 826 826 827 827 827 827 828 828 828 828 828 827 828 828 828 829 829 829 829 829 828 828 828 827 827 827 827
767 771 774 770 766 763 756 757 758 757 758 756 753 754 757 757 753 747 749 755 753 754 758 758 758 758 757 758 762 766 769 773 776 779 782 785 788 790 793 795 795 795 795 794 794 796 797 798 800 801 802 804 805 807 809 811 812 813 814 815 815 815 816 817 818 819 821 822 824 825 826 827 827 827 828 828 828 829 829 829 828 828 828 828 829 829 830 829 829 829 829 829 828 828 828 827 827
764 767 770 763 758 758 753 753 753 752 753 753 753 754 755 753 750 749 751 756 755 755 758 761 764 764 764 765 767 771 775 779 782 784 786 788 790 791 792 793 793 794 794 793 793 794 795 797 799 800 801 803 804 806 808 810 812 813 814 815 815 815 816 817 818 820 821 823 824 825 826 827 827 828 828 828 829 829 830 830 829 829 829 829 829 830 830 830 830 829 829 829 828 828 828 827 827
762 762 763 758 755 757 754 751 750 750 751 752 753 754 755 750 748 750 752 757 756 752 751 754 759 762 765 768 770 773 776 780 783 784 784 786 789 791 792 793 793 793 793 793 792 793 794 796 797 799 800 801 803 805 806 808 811 813 814 815 816 815 816 817 818 819 821 823 824 825 826 827 827 828 828 829 829 830 830 830 830 830 830 830 830 830 830 830 830 830 829 829 828 828 828 827 827
758 755 754 753 754 756 753 750 750 750 751 752 753 756 754 748 749 749 750 756 754 748 747 749 754 757 761 765 769 772 774 776 779 779 780 781 785 790 795 797 797 795 794 793 792 792 793 795 797 798 800 801 802 803 804 806 809 811 813 815 815 816 816 817 817 819 820 822 824 825 826 827 828 828 829 829 830 830 830 831 831 831 830 830 830 830 830 830 830 830 829 829 828 828 828 827 827
758 754 751 752 752 753 750 749 750 749 751 753 753 753 750 750 753 749 750 754 750 746 745 747 752 754 757 761 765 769 772 774 775 777 778 779 782 785 790 795 797 795 793 792 792 792 793 794 797 798 800 801 802 803 804 805 807 809 812 814 815 816 816 817 817 818 820 822 823 825 826 827 828 829 829 830 830 830 831 831 831 831 831 830 830 830 830 830 830 829 829 829 828 828 827 827 827
758 757 752 751 751 751 749 747 748 748 750 750 750 750 750 753 754 750 755 756 750 747 744 745 749 753 757 761 765 769 771 773 775 778 778 778 778 779 782 786 790 792 791 791 791 791 792 793 796 798 800 801 803 804 805 805 807 809 811 813 815 816 817 817 818 818 819 821 823 825 827 828 829 829 830 830 830 831 831 831 831 831 831 831 830 830 830 830 830 829 829 828 828 828 827 827 826
756 758 753 750 750 749 747 747 748 748 749 749 750 752 750 750 750 752 760 758 752 749 746 747 750 754 759 762 766 769 771 772 774 777 778 778 778 780 781 781 783 786 787 789 791 791 792 793 795 797 799 800 801 803 805 806 807 808 810 812 814 816 817 817 818 818 819 820 823 825 827 829 829 830 830 830 831 831 831 831 831 831 831 831 830 830 830 830 829 829 828 828 828 827 827 826 826
752 754 753 750 749 747 747 747 747 748 749 749 752 754 750 746 748 757 762 758 754 751 750 751 753 758 762 764 766 767 768 770 771 774 776 777 777 778 779 778 778 779 781 785 789 791 793 793 794 795 797 798 799 801 803 806 807 808 809 811 813 815 816 817 817 818 819 820 822 825 827 828 829 830 830 831 831 831 832 832 832 831 831 831 831 830 830 829 829 828 828 828 827 827 826 826 825
747 749 750 749 749 747 746 747 746 747 748 748 752 754 749 745 749 761 763 758 755 754 755 756 756 761 764 766 767 767 767 768 770 772 774 776 776 776 776 776 774 773 776 780 784 788 791 792 792 793 794 796 797 800 802 805 807 808 809 811 812 814 815 816 816 817 818 820 821 824 826 828 829 830 830 831 832 832 832 832 832 831 831 831 831 830 830 829 829 828 828 827 827 826 826 825 825
745 748 750 749 749 747 746 746 746 747 747 744 749 751 749 748 750 756 760 758 756 755 758 759 760 763 766 767 769 769 770 770 771 772 772 774 775 775 776 777 776 774 775 777 781 785 787 789 790 791 792 792 794 797 800 803 806 808 809 810 812 813 814 815 816 817 818 819 820 823 825 827 829 829 830 831 832 832 832 832 832 831 831 831 830 830 830 829 829 828 828 827 827 826 826 825 825
746 747 752 751 749 748 745 745 745 746 746 741 746 755 755 751 750 752 755 756 757 757 759 761 762 765 767 768 770 770 770 771 771 772 771 772 774 775 777 779 780 778 778 779 781 783 785 788 790 791 791 790 791 794 797 801 804 808 809 810 811 812 814 815 816 817 818 819 820 822 824 826 828 829 830 831 832 832 832 832 832 831 831 831 830 830 830 829 829 828 828 827 826 825 825 824 824
746 746 751 753 754 750 741 742 745 745 744 738 746 763 760 750 752 754 753 755 758 760 762 762 764 765 768 768 769 770 770 770 770 771 773 773 774 774 776 779 780 780 781 781 782 782 785 787 789 790 789 788 789 792 796 799 804 808 809 810 811 812 813 815 816 818 819 820 821 822 824 825 827 829 830 831 832 832 832 832 832 831 831 830 830 830 830 829 829 828 827 827 825 825 824 823 823
747 747 750 753 759 753 738 739 744 745 744 736 745 764 757 748 756 755 752 755 756 760 763 762 764 766 767 768 769 770 770 770 771 772 773 773 773 773 774 777 779 781 781 782 781 781 784 786 789 790 788 786 787 791 795 800 804 808 809 810 811 812 813 814 816 818 819 821 822 822 824 825 826 828 830 831 832 832 832 832 832 831 831 830 830 830 830 829 828 828 827 826 825 824 823 823 822
747 751 752 752 758 753 739 736 739 743 743 737 745 760 754 749 758 755 752 755 754 758 762 762 764 766 767 769 769 770 770 771 772 773 773 773 773 772 772 775 778 779 780 781 782 782 784 786 788 791 790 787 787 791 795 800 804 807 809 810 811 812 813 815 816 817 819 821 822 823 824 825 826 828 829 831 832 832 832 832 832 831 830 830 829 829 829 829 828 827 826 825 824 823 822 822 822
749 750 753 752 755 755 745 736 734 737 741 740 744 753 750 748 756 755 753 755 755 757 761 762 764 765 766 768 769 770 770 771 772 772 773 772 772 772 772 774 776 777 779 780 782 782 784 787 789 791 791 788 788 791 795 800 804 807 809 810 811 812 814 815 816 818 820 822 823 824 824 825 826 827 829 830 831 832 832 832 831 830 830 829 829 829 829 828 828 827 826 825 824 823 822 821 821
756 752 752 751 751 754 750 740 733 734 739 742 743 746 746 749 753 754 753 754 756 757 760 762 763 764 766 766 768 769 769 770 770 771 772 772 772 773 773 774 775 777 778 780 782 783 785 788 790 792 791 790 790 791 795 800 803 806 808 810 811 813 815 816 816 818 820 822 823 824 825 825 826 827 829 830 831 831 832 832 831 830 830 829 829 829 829 828 828 827 826 825 824 823 822 821 820
757 754 752 751 748 750 749 742 734 733 739 741 745 746 748 754 755 754 754 754 756 756 757 760 762 764 766 766 767 768 768 769 769 770 771 773 773 774 774 776 777 777 779 781 782 784 786 788 791 792 793 793 792 792 795 799 803 806 808 810 811 813 815 816 817 818 820 822 823 824 825 825 825 827 828 830 831 831 832 832 831 830 830 830 830 829 829 828 828 828 827 826 825 823 822 821 820
749 747 747 748 748 748 744 738 731 731 740 743 745 746 747 756 758 755 755 756 758 759 759 761 762 764 765 766 767 767 768 769 769 770 771 773 774 775 775 776 778 779 780 781 783 784 786 789 791 792 793 795 794 793 795 799 802 805 807 809 811 813 814 816 817 819 821 822 823 824 825 825 826 827 828 830 831 832 832 832 832 831 831 831 830 830 829 828 828 828 827 826 825 823 821 820 819
743 743 744 744 744 745 741 735 728 728 739 744 744 743 745 754 757 754 755 758 761 761 762 763 763 764 765 766 767 767 768 769 769 770 771 773 775 776 776 777 778 780 780 781 782 784 787 789 791 792 794 796 796 794 795 798 801 804 806 809 810 812 814 816 817 819 821 822 824 825 825 826 826 827 828 829 830 832 832 832 832 832 832 831 831 830 829 829 829 829 828 826 824 822 821 820 819
744 744 744 745 745 742 736 732 728 727 736 743 744 742 745 753 757 756 757 760 761 759 760 761 761 763 765 765 767 767 768 769 769 770 771 773 775 776 776 777 778 779 780 781 783 785 788 790 792 794 796 798 798 797 797 799 802 804 806 809 810 813 815 816 818 820 822 823 824 825 826 827 827 828 829 830 831 831 831 832 832 833 832 832 831 830 830 829 829 829 828 826 824 822 821 821 819
746 747 746 748 745 741 736 731 728 728 734 743 746 745 750 756 758 759 760 759 760 759 757 757 759 761 763 764 765 766 768 769 769 769 770 772 774 775 776 777 778 779 781 783 785 787 789 791 793 796 798 799 800 799 799 801 803 806 808 810 812 813 816 818 819 821 822 824 825 826 827 827 828 828 830 830 831 831 831 831 832 833 833 832 832 831 830 830 829 829 828 826 824 823 822 822 821
746 749 750 749 744 743 743 735 730 729 733 741 746 751 758 761 760 760 759 757 758 760 760 759 759 760 761 762 763 764 765 766 768 768 770 771 773 775 776 777 778 780 782 783 786 788 790 792 794 797 799 800 801 801 801 803 804 807 809 811 813 814 817 820 821 822 823 824 826 827 828 828 828 829 830 831 831 831 830 831 831 832 832 832 832 831 831 830 829 828 827 826 825 824 823 823 823
747 747 749 747 743 742 740 734 730 731 737 740 745 758 765 763 764 764 760 758 759 760 761 761 761 762 762 763 764 764 763 764 765 767 768 770 772 774 775 777 779 780 782 784 786 788 791 794 796 798 799 801 802 802 802 803 804 807 808 811 813 815 819 821 821 823 824 825 826 828 829 829 829 829 830 831 831 831 830 831 831 831 832 832 832 832 831 830 829 828 827 826 825 824 824 824 824
750 746 744 742 740 739 737 733 732 739 747 742 741 759 769 764 765 766 762 762 762 761 762 761 762 762 762 763 763 764 764 764 764 765 766 768 771 774 776 778 779 781 783 785 787 790 792 794 796 798 800 801 802 802 803 803 804 805 807 810 812 815 819 821 821 823 824 825 827 828 830 830 830 830 830 831 831 831 831 831 831 831 831 832 832 832 831 830 830 829 828 827 826 825 825 825 825
752 743 738 738 738 738 739 736 736 745 751 740 735 753 769 768 763 762 762 763 762 762 761 761 761 760 760 760 761 763 764 765 765 766 767 769 771 774 776 778 780 782 784 786 788 790 792 794 797 799 801 802 803 803 803 803 803 805 806 809 812 815 818 820 822 823 824 826 828 829 830 831 831 830 831 831 832 832 832 831 831 831 831 832 832 832 831 831 830 829 828 827 826 826 825 825 826
749 736 733 737 738 740 740 738 740 744 745 741 737 745 762 767 759 754 758 762 762 761 761 760 759 758 758 758 759 762 762 763 765 766 768 769 771 773 776 778 780 782 784 786 788 791 793 795 798 800 802 803 803 803 803 803 804 807 809 811 814 816 818 820 822 823 825 827 828 830 831 831 831 830 831 831 832 833 832 832 831 831 831 832 832 832 832 831 831 830 829 828 827 827 827 827 827
739 729 731 734 735 738 737 738 741 742 745 749 746 745 759 767 757 752 757 760 762 760 758 757 755 755 756 756 759 760 761 762 763 766 767 769 771 774 777 779 781 783 784 786 788 791 794 796 799 801 802 803 803 803 803 803 805 809 813 814 816 818 819 821 823 824 826 828 829 831 831 831 831 831 831 832 833 833 833 832 832 832 832 832 832 832 832 832 831 830 829 828 828 828 829 828 828
729 726 731 732 734 737 736 739 742 745 752 755 750 747 758 765 758 757 762 760 759 757 754 753 752 752 753 754 758 759 761 762 764 766 767 770 772 775 778 780 782 784 785 786 788 791 794 796 798 800 801 802 803 803 803 803 806 810 813 814 816 819 820 821 823 825 827 829 830 831 832 832 831 831 832 833 833 833 833 833 832 832 832 833 833 833 833 832 832 831 830 830 830 830 830 830 830
724 727 733 734 736 736 737 741 743 752 759 754 749 747 753 759 753 754 756 746 744 748 750 751 749 749 750 751 754 756 759 762 763 766 768 770 773 776 778 780 782 783 785 787 789 792 794 796 798 799 801 801 802 803 803 804 807 810 813 815 817 818 819 821 823 826 828 829 830 831 832 832 831 832 832 833 833 833 833 833 833 833 834 834 834 833 833 832 832 832 832 833 832 832 832 832 832
723 731 736 741 744 741 744 747 749 761 762 746 742 745 752 757 746 742 742 730 730 737 741 744 743 744 745 747 750 752 756 760 763 766 767 770 773 775 778 780 782 783 785 788 790 792 794 796 798 799 800 801 801 803 804 805 808 810 814 816 816 817 818 820 822 825 828 829 830 831 831 832 832 832 832 833 833 834 834 834 834 835 834 834 834 833 833 833 833 834 834 834 834 833 833 833 833
726 733 739 750 756 755 758 758 756 763 756 739 739 744 753 752 734 730 733 726 725 727 727 730 734 737 740 743 747 750 754 758 761 764 766 769 771 773 776 779 781 783 785 788 790 792 794 795 797 798 799 801 802 804 805 806 809 812 814 814 815 817 818 820 822 825 828 829 830 831 831 832 832 832 833 833 835 835 835 835 835 835 834 834 834 834 834 835 835 835 835 835 835 835 835 834 834
728 731 739 750 757 762 768 766 762 761 747 736 740 745 751 747 726 718 721 717 717 718 720 724 728 734 739 743 747 750 753 756 759 763 765 767 770 772 775 778 780 782 784 787 789 791 793 795 797 798 799 801 802 804 806 807 810 812 813 814 815 817 819 821 824 826 828 830 831 832 832 832 832 833 834 835 836 836 836 835 835 834 834 834 835 835 836 837 837 837 837 836 836 836 836 836 837
725 725 732 741 744 749 758 758 756 754 744 742 748 747 746 739 722 712 708 709 715 718 721 726 730 735 739 744 749 751 754 756 758 762 764 766 768 771 774 777 780 782 784 786 788 790 792 794 796 798 799 801 803 804 806 808 810 812 813 815 816 818 820 822 825 827 829 830 831 832 833 833 834 835 836 837 837 837 836 835 834 834 834 835 836 837 838 839 838 838 838 837 838 838 838 838 839
725 723 729 735 730 731 741 747 745 741 739 745 748 742 734 724 716 713 709 709 718 722 725 729 733 736 739 744 748 750 753 755 757 760 763 765 768 770 774 777 779 781 783 785 787 789 792 794 796 798 800 802 803 805 806 808 810 812 814 815 817 819 821 823 826 828 830 831 832 833 833 834 835 836 837 838 838 838 837 836 835 835 836 838 839 839 839 839 839 839 839 839 839 840 840 840 840
723 726 729 727 719 719 733 745 746 741 739 743 742 736 732 725 719 717 713 714 722 725 728 732 734 736 739 743 746 748 750 752 755 759 761 764 767 769 773 776 778 780 782 785 787 789 792 794 796 798 800 802 804 805 807 808 810 812 814 816 818 820 822 824 826 828 830 831 832 833 833 834 836 837 838 839 839 839 838 837 837 838 839 839 840 840 840 840 840 840 840 841 841 842 842 842 842
718 726 723 719 719 721 727 739 748 749 744 740 738 736 736 733 729 725 722 723 726 727 729 733 734 735 738 740 742 745 747 750 754 757 760 763 765 769 773 775 778 780 782 785 787 789 792 794 796 798 800 802 804 806 807 809 810 812 814 816 818 820 822 824 826 828 830 831 832 833 834 835 837 838 839 839 840 839 839 838 839 839 840 840 840 840 841 841 841 841 842 842 843 843 843 843 843
707 713 711 716 727 732 733 737 744 749 747 741 738 739 736 730 730 731 727 725 727 728 730 731 732 733 735 738 741 744 746 749 753 757 760 762 765 768 771 775 777 780 783 785 788 790 792 795 797 798 800 802 804 806 807 810 811 813 815 817 819 821 823 825 826 828 830 831 832 833 834 836 837 839 840 840 840 839 839 840 840 840 840 840 841 841 841 842 842 843 844 844 845 845 844 844 845
703 705 706 712 719 724 729 733 735 738 744 742 738 739 731 720 721 725 720 717 720 724 726 727 727 729 731 735 739 743 745 748 752 756 759 761 764 767 770 774 777 780 782 785 788 790 792 795 796 798 799 802 804 806 808 810 812 813 815 817 819 821 823 825 827 828 830 832 833 834 835 837 838 840 840 840 840 840 840 840 840 840 840 841 842 842 843 843 844 845 845 845 846 846 845 846 848
709 711 714 714 713 716 721 728 730 729 733 738 739 738 724 707 710 715 709 708 711 714 717 721 723 725 729 732 736 740 744 747 750 754 757 760 763 766 770 773 777 779 782 785 788 790 792 795 796 797 799 801 804 806 808 810 812 814 815 817 819 822 824 826 828 829 831 832 833 835 836 838 839 840 840 840 840 840 840 840 840 841 842 842 843 844 845 845 846 846 847 847 847 847 848 849 850
705 710 714 713 712 719 727 733 732 725 727 731 732 733 718 701 703 707 703 703 703 704 709 715 719 722 726 730 734 738 742 745 748 751 755 759 762 765 769 773 776 779 782 785 788 790 792 794 796 797 799 801 804 806 808 810 812 814 816 818 820 823 825 827 828 830 831 832 834 835 837 838 839 839 840 840 840 840 841 841 841 842 844 844 845 846 847 847 847 847 848 849 849 849 850 851 852